Location: Bussy-Saint-Georges
(48.8410°N, 2.7017°E)
Time: 20:31:15
(UTC+00:00)

Cosmos 1328 - Pass Details

Date: 18 October 2021
Orbit: 528 x 552 km, 82.5° (Epoch: 07 December)

Event Time Altitude Azimuth Distance (km) Brightness Sun altitude
Rises 18:01:57 0° 355° (N) 2,731 7.4 -12.0°
Reaches altitude 10° 18:04:12 10° 2° (N) 1,835 6.5 -12.3°
Maximum altitude 18:08:05 45° 76° (ENE) 759 4.1 -13.0°
Drops below altitude 10° 18:11:58 10° 150° (SSE) 1,827 6.2 -13.6°
Sets 18:14:11 0° 156° (SSE) 2,717 7.1 -14.0°
